TimeEDT,TemperatureF,Dew PointF,Humidity,Sea Level PressureIn,VisibilityMPH,Wind Direction,Wind SpeedMPH,Gust SpeedMPH,PrecipitationIn,Events,Conditions,WindDirDegrees,DateUTC
12:15 AM,51.8,46.4,82,29.91,-9999.0,Calm,Calm,-,N/A,,Overcast,0,2013-09-22 04:15:00
12:35 AM,51.8,46.4,82,29.91,-9999.0,Calm,Calm,-,N/A,,Overcast,0,2013-09-22 04:35:00
12:55 AM,51.8,46.4,82,29.92,-9999.0,Calm,Calm,-,N/A,,Overcast,0,2013-09-22 04:55:00
1:15 AM,51.8,46.4,82,29.92,-9999.0,Calm,Calm,-,N/A,,Overcast,0,2013-09-22 05:15:00
1:35 AM,53.6,46.4,77,29.92,-9999.0,Calm,Calm,-,N/A,,Overcast,0,2013-09-22 05:35:00
1:55 AM,53.6,46.4,77,29.93,-9999.0,Calm,Calm,-,N/A,,Overcast,0,2013-09-22 05:55:00
2:15 AM,53.6,46.4,77,29.93,-9999.0,Calm,Calm,-,N/A,,Overcast,0,2013-09-22 06:15:00
2:35 AM,53.6,46.4,77,29.93,-9999.0,Calm,Calm,-,N/A,,Overcast,0,2013-09-22 06:35:00
2:55 AM,53.6,46.4,77,29.93,-9999.0,Calm,Calm,-,N/A,,Overcast,0,2013-09-22 06:55:00
3:15 AM,53.6,46.4,77,29.93,-9999.0,Calm,Calm,-,N/A,,Overcast,0,2013-09-22 07:15:00
3:35 AM,51.8,46.4,82,29.93,-9999.0,Calm,Calm,-,N/A,,Overcast,0,2013-09-22 07:35:00
3:55 AM,51.8,46.4,82,29.95,-9999.0,Calm,Calm,-,N/A,,Overcast,0,2013-09-22 07:55:00
4:15 AM,51.8,46.4,82,29.95,-9999.0,Calm,Calm,-,N/A,,Overcast,0,2013-09-22 08:15:00
4:35 AM,51.8,46.4,82,29.95,-9999.0,Calm,Calm,-,N/A,,Overcast,0,2013-09-22 08:35:00
4:55 AM,51.8,46.4,82,29.96,-9999.0,Calm,Calm,-,N/A,,Overcast,0,2013-09-22 08:55:00
5:15 AM,51.8,46.4,82,29.96,-9999.0,Calm,Calm,-,N/A,,Overcast,0,2013-09-22 09:15:00
5:35 AM,50.0,44.6,82,29.96,-9999.0,Calm,Calm,-,N/A,,Overcast,0,2013-09-22 09:35:00
5:55 AM,48.2,44.6,87,29.97,-9999.0,Calm,Calm,-,N/A,,Unknown,0,2013-09-22 09:55:00
6:15 AM,46.4,42.8,87,29.97,-9999.0,Calm,Calm,-,N/A,,Unknown,0,2013-09-22 10:15:00
6:35 AM,46.4,42.8,87,29.97,-9999.0,Calm,Calm,-,N/A,,Unknown,0,2013-09-22 10:35:00
6:55 AM,44.6,42.8,93,29.98,-9999.0,Calm,Calm,-,N/A,,Unknown,0,2013-09-22 10:55:00
7:15 AM,44.6,42.8,93,29.98,-9999.0,Calm,Calm,-,N/A,,Unknown,0,2013-09-22 11:15:00
7:35 AM,44.6,42.8,93,29.99,-9999.0,Calm,Calm,-,N/A,,Unknown,0,2013-09-22 11:35:00
7:55 AM,44.6,42.8,93,30.00,-9999.0,Calm,Calm,-,N/A,,Unknown,0,2013-09-22 11:55:00
8:15 AM,46.4,42.8,87,30.00,-9999.0,Calm,Calm,-,N/A,,Unknown,0,2013-09-22 12:15:00
8:35 AM,48.2,44.6,87,30.00,-9999.0,Calm,Calm,-,N/A,,Unknown,0,2013-09-22 12:35:00
8:55 AM,50.0,42.8,76,30.01,-9999.0,North,4.6,-,N/A,,Clear,350,2013-09-22 12:55:00
9:15 AM,51.8,42.8,71,30.02,-9999.0,North,4.6,-,N/A,,Clear,360,2013-09-22 13:15:00
9:35 AM,53.6,41.0,62,30.02,-9999.0,North,4.6,-,N/A,,Clear,360,2013-09-22 13:35:00
9:55 AM,55.4,41.0,58,30.03,-9999.0,North,6.9,-,N/A,,Clear,10,2013-09-22 13:55:00
10:15 AM,55.4,39.2,54,30.03,-9999.0,NNE,9.2,17.3,N/A,,Clear,20,2013-09-22 14:15:00
10:35 AM,55.4,39.2,54,30.04,-9999.0,North,11.5,16.1,N/A,,Clear,360,2013-09-22 14:35:00
10:55 AM,59.0,39.2,48,30.04,-9999.0,North,10.4,-,N/A,,Scattered Clouds,350,2013-09-22 14:55:00
11:15 AM,59.0,37.4,45,30.04,-9999.0,North,9.2,-,N/A,,Clear,10,2013-09-22 15:15:00
11:35 AM,59.0,37.4,45,30.04,-9999.0,North,8.1,-,N/A,,Clear,360,2013-09-22 15:35:00
11:55 AM,60.8,39.2,45,30.04,-9999.0,North,5.8,-,N/A,,Scattered Clouds,360,2013-09-22 15:55:00
12:15 PM,60.8,37.4,42,30.03,-9999.0,North,10.4,-,N/A,,Clear,360,2013-09-22 16:15:00
12:35 PM,60.8,37.4,42,30.04,-9999.0,NNE,8.1,-,N/A,,Clear,20,2013-09-22 16:35:00
12:55 PM,60.8,39.2,45,30.03,-9999.0,NW,6.9,-,N/A,,Clear,320,2013-09-22 16:55:00
1:15 PM,62.6,39.2,42,30.03,-9999.0,North,4.6,9.2,N/A,,Scattered Clouds,350,2013-09-22 17:15:00
1:35 PM,62.6,37.4,39,30.03,-9999.0,North,11.5,16.1,N/A,,Clear,10,2013-09-22 17:35:00
1:55 PM,62.6,37.4,39,30.03,-9999.0,NNE,6.9,-,N/A,,Clear,20,2013-09-22 17:55:00
2:15 PM,62.6,37.4,39,30.02,-9999.0,North,5.8,18.4,N/A,,Clear,360,2013-09-22 18:15:00
2:35 PM,62.6,37.4,39,30.02,-9999.0,NW,10.4,17.3,N/A,,Clear,320,2013-09-22 18:35:00
2:55 PM,64.4,39.2,40,30.01,-9999.0,NW,9.2,-,N/A,,Clear,320,2013-09-22 18:55:00
3:15 PM,64.4,37.4,37,30.01,-9999.0,North,3.5,-,N/A,,Clear,350,2013-09-22 19:15:00
3:35 PM,64.4,39.2,40,30.00,-9999.0,North,9.2,-,N/A,,Clear,360,2013-09-22 19:35:00
3:55 PM,64.4,39.2,40,30.00,-9999.0,North,8.1,-,N/A,,Clear,350,2013-09-22 19:55:00
4:15 PM,64.4,39.2,40,30.00,-9999.0,NNE,6.9,-,N/A,,Clear,20,2013-09-22 20:15:00
4:35 PM,64.4,39.2,40,30.00,-9999.0,ENE,5.8,-,N/A,,Clear,70,2013-09-22 20:35:00
4:55 PM,64.4,41.0,42,30.00,-9999.0,North,8.1,-,N/A,,Clear,350,2013-09-22 20:55:00
5:15 PM,62.6,41.0,45,30.00,-9999.0,North,5.8,-,N/A,,Clear,350,2013-09-22 21:15:00
5:35 PM,62.6,41.0,45,30.00,-9999.0,NNE,4.6,-,N/A,,Clear,20,2013-09-22 21:35:00
5:55 PM,62.6,41.0,45,30.00,-9999.0,North,6.9,-,N/A,,Scattered Clouds,360,2013-09-22 21:55:00
6:15 PM,62.6,41.0,45,30.01,-9999.0,North,6.9,-,N/A,,Clear,10,2013-09-22 22:15:00
6:35 PM,60.8,41.0,48,30.01,-9999.0,North,8.1,-,N/A,,Clear,350,2013-09-22 22:35:00
6:55 PM,60.8,41.0,48,30.02,-9999.0,North,8.1,-,N/A,,Clear,10,2013-09-22 22:55:00
7:15 PM,57.2,41.0,55,30.02,-9999.0,NNE,6.9,-,N/A,,Clear,30,2013-09-22 23:15:00
7:35 PM,55.4,41.0,58,30.03,-9999.0,NNE,6.9,-,N/A,,Clear,20,2013-09-22 23:35:00
7:55 PM,53.6,41.0,62,30.03,-9999.0,NE,5.8,-,N/A,,Clear,40,2013-09-22 23:55:00
8:15 PM,51.8,41.0,67,30.03,-9999.0,NE,5.8,-,N/A,,Clear,40,2013-09-23 00:15:00
8:35 PM,51.8,41.0,67,30.04,-9999.0,NNE,4.6,-,N/A,,Clear,20,2013-09-23 00:35:00
8:55 PM,50.0,41.0,71,30.04,-9999.0,NE,4.6,-,N/A,,Clear,40,2013-09-23 00:55:00
9:15 PM,50.0,41.0,71,30.05,-9999.0,NE,5.8,-,N/A,,Clear,40,2013-09-23 01:15:00
9:35 PM,50.0,41.0,71,30.05,-9999.0,NE,5.8,-,N/A,,Clear,50,2013-09-23 01:35:00
9:55 PM,50.0,41.0,71,30.06,-9999.0,NE,5.8,-,N/A,,Clear,40,2013-09-23 01:55:00
10:15 PM,48.2,41.0,76,30.06,-9999.0,NE,5.8,-,N/A,,Clear,40,2013-09-23 02:15:00
10:35 PM,48.2,41.0,76,30.06,-9999.0,NE,5.8,-,N/A,,Clear,40,2013-09-23 02:35:00
10:55 PM,46.4,41.0,81,30.06,-9999.0,NE,4.6,-,N/A,,Clear,40,2013-09-23 02:55:00
11:15 PM,44.6,41.0,87,30.07,-9999.0,Calm,Calm,-,N/A,,Clear,0,2013-09-23 03:15:00
11:35 PM,44.6,41.0,87,30.07,-9999.0,ENE,3.5,-,N/A,,Clear,60,2013-09-23 03:35:00
11:55 PM,44.6,41.0,87,30.07,-9999.0,NE,3.5,-,N/A,,Clear,40,2013-09-23 03:55:00